Time,TemperatureF,DewpointF,PressureIn,WindDirection,WindDirectionDegrees,WindSpeedMPH,WindSpeedGustMPH,Humidity,HourlyPrecipIn,Conditions,Clouds,dailyrainin,SoftwareType,DateUTC
2013-02-01 00:00:00,28.2,21.9,29.94,West,270,3.4,4.2,77,0.00,,,0.00,WUHU216TE923,2013-02-01 05:00:00,
2013-02-01 00:02:00,27.9,21.3,29.94,West,270,3.7,4.2,76,0.00,,,0.00,WUHU216TE923,2013-02-01 05:02:00,
2013-02-01 00:07:00,27.7,21.5,29.94,West,270,3.9,4.2,77,0.00,,,0.00,WUHU216TE923,2013-02-01 05:07:00,
2013-02-01 00:12:00,27.7,21.5,29.94,West,270,3.9,3.9,77,0.00,,,0.00,WUHU216TE923,2013-02-01 05:12:00,
2013-02-01 00:17:00,27.0,20.2,29.95,SW,225,5.1,5.1,75,0.00,,,0.00,WUHU216TE923,2013-02-01 05:17:00,
2013-02-01 00:22:00,26.8,20.0,29.95,West,270,5.0,5.1,75,0.00,,,0.00,WUHU216TE923,2013-02-01 05:22:00,
2013-02-01 00:27:00,26.8,19.7,29.95,West,270,4.7,5.0,74,0.00,,,0.00,WUHU216TE923,2013-02-01 05:27:00,
2013-02-01 00:32:00,26.8,18.7,29.95,WSW,248,5.8,11.3,71,0.00,,,0.00,WUHU216TE923,2013-02-01 05:32:00,
2013-02-01 00:37:00,26.1,17.0,29.96,SW,225,7.2,11.3,68,0.00,,,0.00,WUHU216TE923,2013-02-01 05:37:00,
2013-02-01 00:42:00,25.7,16.3,29.96,WSW,248,8.3,13.8,67,0.00,,,0.00,WUHU216TE923,2013-02-01 05:42:00,
2013-02-01 00:47:00,25.3,15.9,29.96,SE,135,8.3,13.8,67,0.00,,,0.00,WUHU216TE923,2013-02-01 05:47:00,
2013-02-01 00:52:00,25.0,15.6,29.96,West,270,8.1,12.3,67,0.00,,,0.00,WUHU216TE923,2013-02-01 05:52:00,
2013-02-01 00:57:00,24.8,15.5,29.98,WSW,248,7.9,10.6,67,0.00,,,0.00,WUHU216TE923,2013-02-01 05:57:00,
2013-02-01 01:02:00,24.6,15.6,29.98,WSW,248,7.1,7.9,68,0.00,,,0.00,WUHU216TE923,2013-02-01 06:02:00,
2013-02-01 01:07:00,24.6,15.3,29.98,West,270,6.3,7.1,67,0.00,,,0.00,WUHU216TE923,2013-02-01 06:07:00,
2013-02-01 01:12:00,24.3,15.3,29.98,WSW,248,6.7,9.4,68,0.00,,,0.00,WUHU216TE923,2013-02-01 06:12:00,
2013-02-01 01:17:00,24.1,15.1,30.01,WSW,248,6.5,9.4,68,0.00,,,0.00,WUHU216TE923,2013-02-01 06:17:00,
2013-02-01 01:22:00,24.3,15.3,30.01,WSW,248,6.5,9.8,68,0.00,,,0.00,WUHU216TE923,2013-02-01 06:22:00,
2013-02-01 01:27:00,23.9,14.9,30.01,WSW,248,6.6,9.8,68,0.00,,,0.00,WUHU216TE923,2013-02-01 06:27:00,
2013-02-01 01:32:00,23.7,14.7,30.01,SW,225,6.3,6.6,68,0.00,,,0.00,WUHU216TE923,2013-02-01 06:32:00,
2013-02-01 01:37:00,23.7,15.1,30.02,South,180,5.4,11.1,69,0.00,,,0.00,WUHU216TE923,2013-02-01 06:37:00,
2013-02-01 01:42:00,23.9,15.6,30.02,ESE,113,4.3,11.1,70,0.00,,,0.00,WUHU216TE923,2013-02-01 06:42:00,
2013-02-01 01:47:00,23.9,15.6,30.02,West,270,2.6,4.3,70,0.00,,,0.00,WUHU216TE923,2013-02-01 06:47:00,
2013-02-01 01:52:00,23.5,14.2,30.02,West,270,2.5,5.6,67,0.00,,,0.00,WUHU216TE923,2013-02-01 06:52:00,
2013-02-01 01:57:00,22.5,12.9,30.05,NW,315,3.9,6.4,66,0.00,,,0.00,WUHU216TE923,2013-02-01 06:57:00,
2013-02-01 02:02:00,21.9,13.0,30.05,West,270,4.0,6.4,68,0.00,,,0.00,WUHU216TE923,2013-02-01 07:02:00,
2013-02-01 02:07:00,21.6,12.4,30.05,West,270,3.1,6.4,67,0.00,,,0.00,WUHU216TE923,2013-02-01 07:07:00,
2013-02-01 02:12:00,21.4,12.2,30.05,WNW,293,2.7,4.1,67,0.00,,,0.00,WUHU216TE923,2013-02-01 07:12:00,
2013-02-01 02:17:00,21.7,12.8,30.07,South,180,2.4,3.4,68,0.00,,,0.00,WUHU216TE923,2013-02-01 07:17:00,
2013-02-01 02:22:00,21.7,12.8,30.07,North,0,2.4,4.3,68,0.00,,,0.00,WUHU216TE923,2013-02-01 07:22:00,
2013-02-01 02:27:00,21.0,12.1,30.07,WSW,248,2.8,4.3,68,0.00,,,0.00,WUHU216TE923,2013-02-01 07:27:00,
2013-02-01 02:32:00,21.2,12.7,30.07,West,270,2.7,2.8,69,0.00,,,0.00,WUHU216TE923,2013-02-01 07:32:00,
2013-02-01 02:37:00,20.5,11.7,30.09,WSW,248,2.5,2.8,68,0.00,,,0.00,WUHU216TE923,2013-02-01 07:37:00,
2013-02-01 02:42:00,20.5,12.0,30.09,WSW,248,2.9,2.9,69,0.00,,,0.00,WUHU216TE923,2013-02-01 07:42:00,
2013-02-01 02:47:00,20.3,10.8,30.09,West,270,3.0,5.1,66,0.00,,,0.00,WUHU216TE923,2013-02-01 07:47:00,
2013-02-01 02:52:00,19.8,10.3,30.09,WSW,248,2.8,5.1,66,0.00,,,0.00,WUHU216TE923,2013-02-01 07:52:00,
2013-02-01 02:57:00,19.8,10.3,30.11,West,270,3.0,9.5,66,0.00,,,0.00,WUHU216TE923,2013-02-01 07:57:00,
2013-02-01 03:02:00,19.6,10.5,30.11,West,270,2.6,9.5,67,0.00,,,0.00,WUHU216TE923,2013-02-01 08:02:00,
2013-02-01 03:07:00,19.6,10.5,30.11,ESE,113,2.5,2.6,67,0.00,,,0.00,WUHU216TE923,2013-02-01 08:07:00,
2013-02-01 03:12:00,19.6,10.5,30.11,ESE,113,2.5,2.5,67,0.00,,,0.00,WUHU216TE923,2013-02-01 08:12:00,
2013-02-01 03:17:00,19.6,10.5,30.12,SW,225,3.4,3.4,67,0.00,,,0.00,WUHU216TE923,2013-02-01 08:17:00,
2013-02-01 03:22:00,19.4,9.6,30.12,West,270,3.7,5.8,65,0.00,,,0.00,WUHU216TE923,2013-02-01 08:22:00,
2013-02-01 03:27:00,19.6,10.1,30.12,SW,225,4.6,6.1,66,0.00,,,0.00,WUHU216TE923,2013-02-01 08:27:00,
2013-02-01 03:32:00,19.4,9.6,30.12,WSW,248,4.5,6.1,65,0.00,,,0.00,WUHU216TE923,2013-02-01 08:32:00,
2013-02-01 03:37:00,19.2,9.4,30.13,SW,225,4.2,6.0,65,0.00,,,0.00,WUHU216TE923,2013-02-01 08:37:00,
2013-02-01 03:42:00,19.0,8.9,30.13,West,270,3.6,5.0,64,0.00,,,0.00,WUHU216TE923,2013-02-01 08:42:00,
2013-02-01 03:47:00,19.0,9.2,30.13,WSW,248,2.3,3.6,65,0.00,,,0.00,WUHU216TE923,2013-02-01 08:47:00,
2013-02-01 03:52:00,19.2,9.4,30.13,West,270,1.5,2.3,65,0.00,,,0.00,WUHU216TE923,2013-02-01 08:52:00,
2013-02-01 03:57:00,19.6,10.1,30.14,SSW,203,1.0,1.9,66,0.00,,,0.00,WUHU216TE923,2013-02-01 08:57:00,
2013-02-01 04:02:00,19.6,10.1,30.14,West,270,0.9,3.8,66,0.00,,,0.00,WUHU216TE923,2013-02-01 09:02:00,
2013-02-01 04:07:00,19.2,9.4,30.14,SSW,203,1.2,3.8,65,0.00,,,0.00,WUHU216TE923,2013-02-01 09:07:00,
2013-02-01 04:12:00,19.2,9.8,30.14,SSE,158,1.4,1.5,66,0.00,,,0.00,WUHU216TE923,2013-02-01 09:12:00,
2013-02-01 04:17:00,19.2,9.8,30.14,SW,225,0.9,1.5,66,0.00,,,0.00,WUHU216TE923,2013-02-01 09:17:00,
2013-02-01 04:22:00,19.6,9.8,30.14,West,270,0.7,2.1,65,0.00,,,0.00,WUHU216TE923,2013-02-01 09:22:00,
2013-02-01 04:27:00,19.2,9.4,30.14,SW,225,0.5,2.1,65,0.00,,,0.00,WUHU216TE923,2013-02-01 09:27:00,
2013-02-01 04:32:00,19.2,9.4,30.14,SW,225,0.6,1.8,65,0.00,,,0.00,WUHU216TE923,2013-02-01 09:32:00,
2013-02-01 04:37:00,19.2,9.4,30.14,ESE,113,0.4,2.0,65,0.00,,,0.00,WUHU216TE923,2013-02-01 09:37:00,
2013-02-01 04:42:00,19.2,9.4,30.14,SW,225,0.4,2.0,65,0.00,,,0.00,WUHU216TE923,2013-02-01 09:42:00,
2013-02-01 04:47:00,19.2,9.1,30.14,WNW,293,0.7,1.5,64,0.00,,,0.00,WUHU216TE923,2013-02-01 09:47:00,
2013-02-01 04:52:00,19.2,9.1,30.14,SW,225,0.9,1.5,64,0.00,,,0.00,WUHU216TE923,2013-02-01 09:52:00,
2013-02-01 04:57:00,19.2,9.1,30.16,West,270,1.3,5.1,64,0.00,,,0.00,WUHU216TE923,2013-02-01 09:57:00,
2013-02-01 05:02:00,18.9,8.8,30.16,SW,225,1.5,5.1,64,0.00,,,0.00,WUHU216TE923,2013-02-01 10:02:00,
2013-02-01 05:07:00,18.9,8.8,30.16,NW,315,1.3,2.6,64,0.00,,,0.00,WUHU216TE923,2013-02-01 10:07:00,
2013-02-01 05:12:00,18.9,8.4,30.16,WSW,248,1.2,2.8,63,0.00,,,0.00,WUHU216TE923,2013-02-01 10:12:00,
2013-02-01 05:17:00,18.9,8.8,30.15,West,270,1.9,3.5,64,0.00,,,0.00,WUHU216TE923,2013-02-01 10:17:00,
2013-02-01 05:22:00,18.5,8.0,30.15,West,270,3.0,7.4,63,0.00,,,0.00,WUHU216TE923,2013-02-01 10:22:00,
2013-02-01 05:27:00,18.1,7.7,30.15,West,270,3.3,7.4,63,0.00,,,0.00,WUHU216TE923,2013-02-01 10:27:00,
2013-02-01 05:32:00,18.1,7.7,30.15,West,270,3.0,3.3,63,0.00,,,0.00,WUHU216TE923,2013-02-01 10:32:00,
2013-02-01 05:37:00,17.8,7.7,30.17,West,270,2.1,3.1,64,0.00,,,0.00,WUHU216TE923,2013-02-01 10:37:00,
2013-02-01 05:42:00,17.8,7.4,30.17,WSW,248,2.2,4.5,63,0.00,,,0.00,WUHU216TE923,2013-02-01 10:42:00,
2013-02-01 05:47:00,17.6,7.5,30.17,SW,225,2.2,5.0,64,0.00,,,0.00,WUHU216TE923,2013-02-01 10:47:00,
2013-02-01 05:52:00,17.8,7.7,30.17,WSW,248,2.8,5.4,64,0.00,,,0.00,WUHU216TE923,2013-02-01 10:52:00,
2013-02-01 05:57:00,17.4,7.3,30.19,WSW,248,4.3,6.3,64,0.00,,,0.00,WUHU216TE923,2013-02-01 10:57:00,
2013-02-01 06:02:00,17.1,7.1,30.19,West,270,4.8,6.3,64,0.00,,,0.00,WUHU216TE923,2013-02-01 11:02:00,
2013-02-01 06:07:00,16.9,6.5,30.19,SW,225,4.9,6.9,63,0.00,,,0.00,WUHU216TE923,2013-02-01 11:07:00,
2013-02-01 06:12:00,16.9,6.5,30.19,SW,225,4.9,6.9,63,0.00,,,0.00,WUHU216TE923,2013-02-01 11:12:00,
2013-02-01 06:17:00,16.7,7.4,30.19,SW,225,4.1,6.9,66,0.00,,,0.00,WUHU216TE923,2013-02-01 11:17:00,
2013-02-01 06:22:00,17.1,7.4,30.19,West,270,3.7,5.1,65,0.00,,,0.00,WUHU216TE923,2013-02-01 11:22:00,
2013-02-01 06:27:00,16.9,7.6,30.19,West,270,3.1,5.7,66,0.00,,,0.00,WUHU216TE923,2013-02-01 11:27:00,
2013-02-01 06:32:00,16.7,7.0,30.19,WSW,248,3.3,5.7,65,0.00,,,0.00,WUHU216TE923,2013-02-01 11:32:00,
2013-02-01 06:37:00,16.7,7.4,30.20,SW,225,3.8,5.1,66,0.00,,,0.00,WUHU216TE923,2013-02-01 11:37:00,
2013-02-01 06:42:00,16.7,7.4,30.20,WSW,248,3.9,6.0,66,0.00,,,0.00,WUHU216TE923,2013-02-01 11:42:00,
2013-02-01 06:47:00,16.3,6.6,30.20,WSW,248,4.2,6.0,65,0.00,,,0.00,WUHU216TE923,2013-02-01 11:47:00,
2013-02-01 06:52:00,16.2,6.5,30.20,WSW,248,4.1,4.6,65,0.00,,,0.00,WUHU216TE923,2013-02-01 11:52:00,
2013-02-01 06:57:00,16.0,6.4,30.21,WSW,248,4.1,4.1,65,0.00,,,0.00,WUHU216TE923,2013-02-01 11:57:00,
2013-02-01 07:02:00,16.0,6.4,30.21,SSW,203,4.2,4.3,65,0.00,,,0.00,WUHU216TE923,2013-02-01 12:02:00,
2013-02-01 07:07:00,16.0,6.4,30.21,SW,225,4.1,5.0,65,0.00,,,0.00,WUHU216TE923,2013-02-01 12:07:00,
2013-02-01 07:12:00,16.0,6.4,30.21,SW,225,4.0,5.0,65,0.00,,,0.00,WUHU216TE923,2013-02-01 12:12:00,
2013-02-01 07:17:00,16.0,6.4,30.22,West,270,3.0,4.0,65,0.00,,,0.00,WUHU216TE923,2013-02-01 12:17:00,
2013-02-01 07:22:00,16.0,6.4,30.22,West,270,2.7,5.0,65,0.00,,,0.00,WUHU216TE923,2013-02-01 12:22:00,
2013-02-01 07:27:00,16.0,6.0,30.22,SW,225,2.3,5.0,64,0.00,,,0.00,WUHU216TE923,2013-02-01 12:27:00,
2013-02-01 07:32:00,15.6,6.0,30.22,SW,225,2.4,4.7,65,0.00,,,0.00,WUHU216TE923,2013-02-01 12:32:00,
2013-02-01 07:37:00,15.6,6.0,30.23,SSE,158,2.6,4.0,65,0.00,,,0.00,WUHU216TE923,2013-02-01 12:37:00,
2013-02-01 07:42:00,15.6,5.6,30.23,WSW,248,3.3,4.7,64,0.00,,,0.00,WUHU216TE923,2013-02-01 12:42:00,
2013-02-01 07:47:00,15.3,5.3,30.23,WSW,248,4.2,5.1,64,0.00,,,0.00,WUHU216TE923,2013-02-01 12:47:00,
2013-02-01 07:52:00,15.3,5.3,30.23,WSW,248,3.8,5.1,64,0.00,,,0.00,WUHU216TE923,2013-02-01 12:52:00,
2013-02-01 07:57:00,15.3,5.3,30.23,NW,315,3.1,4.0,64,0.00,,,0.00,WUHU216TE923,2013-02-01 12:57:00,
2013-02-01 08:02:00,15.3,5.3,30.23,WSW,248,3.3,5.6,64,0.00,,,0.00,WUHU216TE923,2013-02-01 13:02:00,
2013-02-01 08:07:00,14.9,5.0,30.23,WSW,248,3.8,5.6,64,0.00,,,0.00,WUHU216TE923,2013-02-01 13:07:00,
2013-02-01 08:12:00,14.9,5.0,30.23,SW,225,3.4,4.6,64,0.00,,,0.00,WUHU216TE923,2013-02-01 13:12:00,
2013-02-01 08:17:00,15.3,5.3,30.25,West,270,2.1,3.4,64,0.00,,,0.00,WUHU216TE923,2013-02-01 13:17:00,
2013-02-01 08:22:00,15.3,5.3,30.25,West,270,1.6,2.6,64,0.00,,,0.00,WUHU216TE923,2013-02-01 13:22:00,
2013-02-01 08:27:00,15.6,5.6,30.25,WNW,293,1.9,2.8,64,0.00,,,0.00,WUHU216TE923,2013-02-01 13:27:00,
2013-02-01 08:32:00,15.6,5.3,30.25,West,270,2.1,2.8,63,0.00,,,0.00,WUHU216TE923,2013-02-01 13:32:00,
2013-02-01 08:37:00,16.0,6.0,30.27,WSW,248,1.7,2.5,64,0.00,,,0.00,WUHU216TE923,2013-02-01 13:37:00,
2013-02-01 08:42:00,16.0,6.4,30.27,North,0,1.6,2.7,65,0.00,,,0.00,WUHU216TE923,2013-02-01 13:42:00,
2013-02-01 08:47:00,16.0,6.0,30.27,West,270,3.0,4.5,64,0.00,,,0.00,WUHU216TE923,2013-02-01 13:47:00,
2013-02-01 08:52:00,16.0,5.7,30.27,WSW,248,3.5,4.5,63,0.00,,,0.00,WUHU216TE923,2013-02-01 13:52:00,
2013-02-01 08:57:00,15.6,5.3,30.28,WSW,248,3.7,4.8,63,0.00,,,0.00,WUHU216TE923,2013-02-01 13:57:00,
2013-02-01 09:02:00,15.3,5.3,30.28,WSW,248,3.8,4.8,64,0.00,,,0.00,WUHU216TE923,2013-02-01 14:02:00,
2013-02-01 09:07:00,16.0,5.7,30.28,WSW,248,3.3,4.4,63,0.00,,,0.00,WUHU216TE923,2013-02-01 14:07:00,
2013-02-01 09:12:00,16.0,5.7,30.28,WSW,248,3.0,6.4,63,0.00,,,0.00,WUHU216TE923,2013-02-01 14:12:00,
2013-02-01 09:17:00,15.6,5.3,30.31,WSW,248,4.0,6.4,63,0.00,,,0.00,WUHU216TE923,2013-02-01 14:17:00,
2013-02-01 09:22:00,15.6,5.3,30.31,SW,225,3.6,4.0,63,0.00,,,0.00,WUHU216TE923,2013-02-01 14:22:00,
2013-02-01 09:27:00,16.0,5.7,30.31,NW,315,2.8,3.6,63,0.00,,,0.00,WUHU216TE923,2013-02-01 14:27:00,
2013-02-01 09:32:00,16.0,5.7,30.31,SW,225,3.0,3.1,63,0.00,,,0.00,WUHU216TE923,2013-02-01 14:32:00,
2013-02-01 09:37:00,16.2,5.5,30.32,WSW,248,2.8,3.8,62,0.00,,,0.00,WUHU216TE923,2013-02-01 14:37:00,
2013-02-01 09:42:00,16.2,5.5,30.32,WSW,248,2.7,4.8,62,0.00,,,0.00,WUHU216TE923,2013-02-01 14:42:00,
2013-02-01 09:47:00,16.0,5.3,30.32,WSW,248,4.1,6.2,62,0.00,,,0.00,WUHU216TE923,2013-02-01 14:47:00,
2013-02-01 09:52:00,16.0,5.0,30.32,SW,225,5.3,7.1,61,0.00,,,0.00,WUHU216TE923,2013-02-01 14:52:00,
2013-02-01 09:57:00,16.2,5.9,30.33,WSW,248,4.1,7.1,63,0.00,,,0.00,WUHU216TE923,2013-02-01 14:57:00,
2013-02-01 10:02:00,16.3,5.9,30.33,WSW,248,3.8,5.8,63,0.00,,,0.00,WUHU216TE923,2013-02-01 15:02:00,
2013-02-01 10:07:00,16.7,6.0,30.33,WSW,248,4.4,5.8,62,0.00,,,0.00,WUHU216TE923,2013-02-01 15:07:00,
2013-02-01 10:12:00,16.3,5.9,30.33,WSW,248,5.0,5.3,63,0.00,,,0.00,WUHU216TE923,2013-02-01 15:12:00,
2013-02-01 10:17:00,16.7,6.0,30.34,SW,225,4.7,5.0,62,0.00,,,0.00,WUHU216TE923,2013-02-01 15:17:00,
2013-02-01 10:22:00,16.9,6.5,30.34,SW,225,3.4,4.7,63,0.00,,,0.00,WUHU216TE923,2013-02-01 15:22:00,
2013-02-01 10:27:00,17.4,7.0,30.34,West,270,3.5,6.6,63,0.00,,,0.00,WUHU216TE923,2013-02-01 15:27:00,
2013-02-01 10:32:00,17.4,6.3,30.34,WSW,248,4.1,6.6,61,0.00,,,0.00,WUHU216TE923,2013-02-01 15:32:00,
2013-02-01 10:37:00,17.6,6.8,30.36,NW,315,4.6,5.9,62,0.00,,,0.00,WUHU216TE923,2013-02-01 15:37:00,
2013-02-01 10:42:00,17.4,6.3,30.36,WSW,248,4.9,6.2,61,0.00,,,0.00,WUHU216TE923,2013-02-01 15:42:00,
2013-02-01 10:47:00,17.6,6.5,30.36,East,90,4.6,6.2,61,0.00,,,0.00,WUHU216TE923,2013-02-01 15:47:00,
2013-02-01 10:52:00,18.5,7.7,30.36,SW,225,4.1,4.6,62,0.00,,,0.00,WUHU216TE923,2013-02-01 15:52:00,
2013-02-01 10:57:00,18.5,7.7,30.35,WSW,248,3.8,4.7,62,0.00,,,0.00,WUHU216TE923,2013-02-01 15:57:00,
2013-02-01 11:02:00,18.7,7.9,30.35,WSW,248,4.3,6.5,62,0.00,,,0.00,WUHU216TE923,2013-02-01 16:02:00,
2013-02-01 11:07:00,19.0,7.0,30.35,WSW,248,4.8,8.7,59,0.00,,,0.00,WUHU216TE923,2013-02-01 16:07:00,
2013-02-01 11:12:00,18.9,7.3,30.35,West,270,5.1,8.7,60,0.00,,,0.00,WUHU216TE923,2013-02-01 16:12:00,
2013-02-01 11:17:00,18.9,7.3,30.36,West,270,5.0,7.5,60,0.00,,,0.00,WUHU216TE923,2013-02-01 16:17:00,
2013-02-01 11:22:00,19.6,8.4,30.36,WSW,248,4.3,7.0,61,0.00,,,0.00,WUHU216TE923,2013-02-01 16:22:00,
2013-02-01 11:27:00,20.3,8.3,30.36,WSW,248,4.4,8.7,59,0.00,,,0.00,WUHU216TE923,2013-02-01 16:27:00,
2013-02-01 11:32:00,19.9,7.9,30.36,WSW,248,4.6,8.7,59,0.00,,,0.00,WUHU216TE923,2013-02-01 16:32:00,
2013-02-01 11:37:00,20.1,8.1,30.36,WSW,248,4.8,6.7,59,0.00,,,0.00,WUHU216TE923,2013-02-01 16:37:00,
2013-02-01 11:42:00,20.5,8.1,30.36,WSW,248,4.4,6.7,58,0.00,,,0.00,WUHU216TE923,2013-02-01 16:42:00,
2013-02-01 11:47:00,21.2,9.5,30.36,West,270,4.4,8.0,60,0.00,,,0.00,WUHU216TE923,2013-02-01 16:47:00,
2013-02-01 11:52:00,21.2,8.3,30.36,SW,225,4.9,8.0,57,0.00,,,0.00,WUHU216TE923,2013-02-01 16:52:00,
2013-02-01 11:57:00,21.0,8.2,30.36,WSW,248,5.8,5.9,57,0.00,,,0.00,WUHU216TE923,2013-02-01 16:57:00,
2013-02-01 12:02:00,21.4,8.9,30.36,WSW,248,5.8,6.8,58,0.00,,,0.00,WUHU216TE923,2013-02-01 17:02:00,
2013-02-01 12:07:00,21.4,8.5,30.36,WSW,248,6.0,6.8,57,0.00,,,0.00,WUHU216TE923,2013-02-01 17:07:00,
2013-02-01 12:12:00,21.4,8.5,30.36,WSW,248,6.0,6.0,57,0.00,,,0.00,WUHU216TE923,2013-02-01 17:12:00,
2013-02-01 12:17:00,21.7,8.8,30.35,West,270,6.3,10.5,57,0.00,,,0.00,WUHU216TE923,2013-02-01 17:17:00,
2013-02-01 12:22:00,21.7,9.2,30.35,WSW,248,6.2,10.5,58,0.00,,,0.00,WUHU216TE923,2013-02-01 17:22:00,
2013-02-01 12:27:00,21.0,8.2,30.35,WSW,248,5.9,7.7,57,0.00,,,0.00,WUHU216TE923,2013-02-01 17:27:00,
2013-02-01 12:32:00,21.4,8.9,30.35,South,180,5.4,7.3,58,0.00,,,0.00,WUHU216TE923,2013-02-01 17:32:00,
2013-02-01 12:37:00,21.7,9.2,30.35,WSW,248,5.6,8.7,58,0.00,,,0.00,WUHU216TE923,2013-02-01 17:37:00,
2013-02-01 12:42:00,21.0,8.2,30.35,West,270,5.9,8.7,57,0.00,,,0.00,WUHU216TE923,2013-02-01 17:42:00,
2013-02-01 12:47:00,21.4,8.9,30.35,SW,225,5.5,5.9,58,0.00,,,0.00,WUHU216TE923,2013-02-01 17:47:00,
2013-02-01 12:52:00,21.4,8.9,30.35,West,270,5.3,6.7,58,0.00,,,0.00,WUHU216TE923,2013-02-01 17:52:00,
2013-02-01 12:57:00,21.7,9.2,30.33,SW,225,6.2,8.6,58,0.00,,,0.00,WUHU216TE923,2013-02-01 17:57:00,
2013-02-01 13:02:00,21.7,10.0,30.33,West,270,5.9,8.6,60,0.00,,,0.00,WUHU216TE923,2013-02-01 18:02:00,
2013-02-01 13:07:00,22.1,9.6,30.33,SW,225,5.2,5.9,58,0.00,,,0.00,WUHU216TE923,2013-02-01 18:07:00,
2013-02-01 13:12:00,22.5,10.0,30.33,SSW,203,4.9,5.8,58,0.00,,,0.00,WUHU216TE923,2013-02-01 18:12:00,
2013-02-01 13:17:00,23.2,10.6,30.33,WSW,248,4.7,5.8,58,0.00,,,0.00,WUHU216TE923,2013-02-01 18:17:00,
2013-02-01 13:22:00,23.4,11.2,30.33,WNW,293,4.6,5.0,59,0.00,,,0.00,WUHU216TE923,2013-02-01 18:22:00,
2013-02-01 13:27:00,23.4,11.2,30.33,WSW,248,4.7,5.0,59,0.00,,,0.00,WUHU216TE923,2013-02-01 18:27:00,
2013-02-01 13:32:00,23.4,10.4,30.33,WSW,248,5.0,5.8,57,0.00,,,0.00,WUHU216TE923,2013-02-01 18:32:00,
2013-02-01 13:37:00,24.6,12.3,30.31,WSW,248,4.5,5.8,59,0.00,,,0.00,WUHU216TE923,2013-02-01 18:37:00,
2013-02-01 13:42:00,24.6,11.1,30.31,West,270,4.5,6.6,56,0.00,,,0.00,WUHU216TE923,2013-02-01 18:42:00,
2013-02-01 13:47:00,24.6,11.1,30.31,West,270,4.5,6.6,56,0.00,,,0.00,WUHU216TE923,2013-02-01 18:47:00,
2013-02-01 13:52:00,24.6,11.1,30.31,WSW,248,5.2,7.4,56,0.00,,,0.00,WUHU216TE923,2013-02-01 18:52:00,
2013-02-01 13:57:00,25.0,11.1,30.30,West,270,5.5,7.4,55,0.00,,,0.00,WUHU216TE923,2013-02-01 18:57:00,
2013-02-01 14:02:00,25.3,11.8,30.30,WSW,248,5.7,7.2,56,0.00,,,0.00,WUHU216TE923,2013-02-01 19:02:00,
2013-02-01 14:07:00,25.7,11.7,30.30,West,270,5.1,6.1,55,0.00,,,0.00,WUHU216TE923,2013-02-01 19:07:00,
2013-02-01 14:12:00,25.9,11.5,30.30,WSW,248,5.2,6.0,54,0.00,,,0.00,WUHU216TE923,2013-02-01 19:12:00,
2013-02-01 14:17:00,26.2,11.8,30.30,WSW,248,5.2,8.6,54,0.00,,,0.00,WUHU216TE923,2013-02-01 19:17:00,
2013-02-01 14:22:00,26.8,12.4,30.30,West,270,5.1,8.6,54,0.00,,,0.00,WUHU216TE923,2013-02-01 19:22:00,
2013-02-01 14:27:00,24.8,10.9,30.30,West,270,5.3,6.1,55,0.00,,,0.00,WUHU216TE923,2013-02-01 19:27:00,
2013-02-01 14:32:00,25.7,11.7,30.30,West,270,4.8,5.3,55,0.00,,,0.00,WUHU216TE923,2013-02-01 19:32:00,
2013-02-01 14:37:00,26.1,11.7,30.30,SW,225,4.5,4.8,54,0.00,,,0.00,WUHU216TE923,2013-02-01 19:37:00,
2013-02-01 14:42:00,25.9,11.5,30.30,WSW,248,4.5,4.5,54,0.00,,,0.00,WUHU216TE923,2013-02-01 19:42:00,
2013-02-01 14:47:00,27.0,13.0,30.30,West,270,4.4,8.5,55,0.00,,,0.00,WUHU216TE923,2013-02-01 19:47:00,
2013-02-01 14:52:00,27.5,13.0,30.30,SW,225,5.0,8.5,54,0.00,,,0.00,WUHU216TE923,2013-02-01 19:52:00,
2013-02-01 14:57:00,27.5,13.0,30.29,WSW,248,5.5,11.1,54,0.00,,,0.00,WUHU216TE923,2013-02-01 19:57:00,
2013-02-01 15:02:00,27.5,13.0,30.29,WSW,248,5.7,11.1,54,0.00,,,0.00,WUHU216TE923,2013-02-01 20:02:00,
2013-02-01 15:07:00,27.5,13.0,30.29,NW,315,5.4,8.2,54,0.00,,,0.00,WUHU216TE923,2013-02-01 20:07:00,
2013-02-01 15:12:00,28.2,14.1,30.29,SW,225,4.6,5.9,55,0.00,,,0.00,WUHU216TE923,2013-02-01 20:12:00,
2013-02-01 15:17:00,27.9,13.4,30.29,WSW,248,4.7,6.5,54,0.00,,,0.00,WUHU216TE923,2013-02-01 20:17:00,
2013-02-01 15:22:00,28.2,14.1,30.29,North,0,4.3,6.5,55,0.00,,,0.00,WUHU216TE923,2013-02-01 20:22:00,
2013-02-01 15:27:00,28.2,13.2,30.29,WSW,248,4.6,4.6,53,0.00,,,0.00,WUHU216TE923,2013-02-01 20:27:00,
2013-02-01 15:32:00,27.7,13.2,30.29,WSW,248,4.8,4.9,54,0.00,,,0.00,WUHU216TE923,2013-02-01 20:32:00,
2013-02-01 15:37:00,27.9,13.4,30.29,WSW,248,4.6,6.3,54,0.00,,,0.00,WUHU216TE923,2013-02-01 20:37:00,
2013-02-01 15:42:00,27.9,13.4,30.29,WSW,248,5.0,6.3,54,0.00,,,0.00,WUHU216TE923,2013-02-01 20:42:00,
2013-02-01 15:47:00,27.5,13.0,30.29,SSW,203,5.3,5.3,54,0.00,,,0.00,WUHU216TE923,2013-02-01 20:47:00,
2013-02-01 15:52:00,27.9,13.4,30.29,SW,225,4.9,7.4,54,0.00,,,0.00,WUHU216TE923,2013-02-01 20:52:00,
2013-02-01 15:57:00,27.1,12.6,30.28,NW,315,4.8,7.4,54,0.00,,,0.00,WUHU216TE923,2013-02-01 20:57:00,
2013-02-01 16:02:00,26.8,11.9,30.28,West,270,4.9,5.1,53,0.00,,,0.00,WUHU216TE923,2013-02-01 21:02:00,
2013-02-01 16:07:00,27.5,12.6,30.28,West,270,4.8,8.7,53,0.00,,,0.00,WUHU216TE923,2013-02-01 21:07:00,
2013-02-01 16:12:00,26.8,11.9,30.28,WNW,293,5.1,8.7,53,0.00,,,0.00,WUHU216TE923,2013-02-01 21:12:00,
2013-02-01 16:17:00,27.9,13.4,30.27,West,270,4.7,6.9,54,0.00,,,0.00,WUHU216TE923,2013-02-01 21:17:00,
2013-02-01 16:22:00,27.9,13.4,30.27,WNW,293,3.8,4.9,54,0.00,,,0.00,WUHU216TE923,2013-02-01 21:22:00,
2013-02-01 16:27:00,28.6,14.0,30.27,West,270,3.5,4.9,54,0.00,,,0.00,WUHU216TE923,2013-02-01 21:27:00,
2013-02-01 16:32:00,28.4,13.8,30.27,West,270,3.9,5.3,54,0.00,,,0.00,WUHU216TE923,2013-02-01 21:32:00,
2013-02-01 16:37:00,27.7,12.3,30.27,WSW,248,4.3,5.3,52,0.00,,,0.00,WUHU216TE923,2013-02-01 21:37:00,
2013-02-01 16:42:00,27.7,12.3,30.27,SW,225,4.3,4.6,52,0.00,,,0.00,WUHU216TE923,2013-02-01 21:42:00,
2013-02-01 16:47:00,27.7,12.3,30.27,WSW,248,4.3,6.1,52,0.00,,,0.00,WUHU216TE923,2013-02-01 21:47:00,
2013-02-01 16:52:00,27.5,12.1,30.27,WSW,248,4.7,6.1,52,0.00,,,0.00,WUHU216TE923,2013-02-01 21:52:00,
2013-02-01 16:57:00,27.1,11.8,30.27,West,270,4.9,5.5,52,0.00,,,0.00,WUHU216TE923,2013-02-01 21:57:00,
2013-02-01 17:02:00,26.8,12.4,30.27,WSW,248,4.2,5.5,54,0.00,,,0.00,WUHU216TE923,2013-02-01 22:02:00,
2013-02-01 17:07:00,26.8,12.4,30.27,WNW,293,3.3,4.9,54,0.00,,,0.00,WUHU216TE923,2013-02-01 22:07:00,
2013-02-01 17:12:00,26.8,12.4,30.27,West,270,3.3,5.2,54,0.00,,,0.00,WUHU216TE923,2013-02-01 22:12:00,
2013-02-01 17:17:00,26.4,11.5,30.26,SW,225,3.8,5.2,53,0.00,,,0.00,WUHU216TE923,2013-02-01 22:17:00,
2013-02-01 17:22:00,26.4,12.0,30.26,West,270,3.6,4.9,54,0.00,,,0.00,WUHU216TE923,2013-02-01 22:22:00,
2013-02-01 17:27:00,26.1,12.1,30.26,WSW,248,3.4,4.9,55,0.00,,,0.00,WUHU216TE923,2013-02-01 22:27:00,
2013-02-01 17:32:00,26.1,12.1,30.26,West,270,3.7,4.5,55,0.00,,,0.00,WUHU216TE923,2013-02-01 22:32:00,
2013-02-01 17:37:00,26.1,11.7,30.26,SW,225,3.7,6.1,54,0.00,,,0.00,WUHU216TE923,2013-02-01 22:37:00,
2013-02-01 17:42:00,26.1,12.1,30.26,WSW,248,3.4,6.1,55,0.00,,,0.00,WUHU216TE923,2013-02-01 22:42:00,
2013-02-01 17:47:00,26.1,12.5,30.26,SW,225,3.1,3.6,56,0.00,,,0.00,WUHU216TE923,2013-02-01 22:47:00,
2013-02-01 17:52:00,25.7,12.2,30.26,West,270,2.9,5.1,56,0.00,,,0.00,WUHU216TE923,2013-02-01 22:52:00,
2013-02-01 17:57:00,25.3,11.8,30.26,WNW,293,2.9,5.1,56,0.00,,,0.00,WUHU216TE923,2013-02-01 22:57:00,
2013-02-01 18:02:00,25.3,12.2,30.26,West,270,3.1,4.2,57,0.00,,,0.00,WUHU216TE923,2013-02-01 23:02:00,
2013-02-01 18:07:00,24.6,11.1,30.26,WSW,248,3.6,4.2,56,0.00,,,0.00,WUHU216TE923,2013-02-01 23:07:00,
2013-02-01 18:12:00,24.6,11.1,30.26,West,270,3.7,3.8,56,0.00,,,0.00,WUHU216TE923,2013-02-01 23:12:00,
2013-02-01 18:17:00,24.3,10.9,30.25,WSW,248,2.7,3.7,56,0.00,,,0.00,WUHU216TE923,2013-02-01 23:17:00,
2013-02-01 18:22:00,24.3,11.3,30.25,NNE,23,2.1,3.2,57,0.00,,,0.00,WUHU216TE923,2013-02-01 23:22:00,
2013-02-01 18:27:00,24.3,11.7,30.25,WSW,248,1.8,2.2,58,0.00,,,0.00,WUHU216TE923,2013-02-01 23:27:00,
2013-02-01 18:32:00,24.6,12.3,30.25,West,270,1.8,2.2,59,0.00,,,0.00,WUHU216TE923,2013-02-01 23:32:00,
2013-02-01 18:37:00,24.3,11.7,30.26,SW,225,2.1,2.8,58,0.00,,,0.00,WUHU216TE923,2013-02-01 23:37:00,
2013-02-01 18:42:00,24.3,11.7,30.26,WSW,248,2.2,2.9,58,0.00,,,0.00,WUHU216TE923,2013-02-01 23:42:00,
2013-02-01 18:47:00,24.1,11.9,30.26,WSW,248,2.0,2.9,59,0.00,,,0.00,WUHU216TE923,2013-02-01 23:47:00,
2013-02-01 18:52:00,24.1,11.9,30.26,West,270,1.6,2.2,59,0.00,,,0.00,WUHU216TE923,2013-02-01 23:52:00,
2013-02-01 18:57:00,24.1,11.9,30.26,WSW,248,1.5,1.9,59,0.00,,,0.00,WUHU216TE923,2013-02-01 23:57:00,
2013-02-01 19:02:00,24.3,12.4,30.26,SSW,203,1.0,1.5,60,0.00,,,0.00,WUHU216TE923,2013-02-02 00:02:00,
2013-02-01 19:07:00,24.1,12.2,30.26,ESE,113,0.3,1.0,60,0.00,,,0.00,WUHU216TE923,2013-02-02 00:07:00,
2013-02-01 19:12:00,24.3,12.4,30.26,NW,315,0.2,0.3,60,0.00,,,0.00,WUHU216TE923,2013-02-02 00:12:00,
2013-02-01 19:17:00,23.9,12.4,30.26,SSE,158,0.0,0.2,61,0.00,,,0.00,WUHU216TE923,2013-02-02 00:17:00,
2013-02-01 19:22:00,23.9,12.4,30.26,NE,45,0.2,1.1,61,0.00,,,0.00,WUHU216TE923,2013-02-02 00:22:00,
2013-02-01 19:27:00,23.9,12.4,30.26,East,90,0.6,1.1,61,0.00,,,0.00,WUHU216TE923,2013-02-02 00:27:00,
2013-02-01 19:32:00,23.9,12.4,30.26,ENE,68,0.5,1.0,61,0.00,,,0.00,WUHU216TE923,2013-02-02 00:32:00,
2013-02-01 19:37:00,23.4,12.3,30.26,NNW,338,0.1,0.5,62,0.00,,,0.00,WUHU216TE923,2013-02-02 00:37:00,
2013-02-01 19:42:00,23.5,12.4,30.26,East,90,0.0,0.1,62,0.00,,,0.00,WUHU216TE923,2013-02-02 00:42:00,
2013-02-01 19:47:00,23.5,12.4,30.26,NW,315,0.0,1.1,62,0.00,,,0.00,WUHU216TE923,2013-02-02 00:47:00,
2013-02-01 19:52:00,23.9,12.8,30.26,NNW,338,0.0,1.1,62,0.00,,,0.00,WUHU216TE923,2013-02-02 00:52:00,
2013-02-01 19:57:00,23.5,12.4,30.26,NE,45,0.0,0.0,62,0.00,,,0.00,WUHU216TE923,2013-02-02 00:57:00,
2013-02-01 20:02:00,23.5,12.8,30.26,ENE,68,0.0,0.0,63,0.00,,,0.00,WUHU216TE923,2013-02-02 01:02:00,
2013-02-01 20:07:00,23.4,13.1,30.26,NNW,338,0.0,0.0,64,0.00,,,0.00,WUHU216TE923,2013-02-02 01:07:00,
2013-02-01 20:12:00,23.5,13.5,30.26,SW,225,0.0,0.0,65,0.00,,,0.00,WUHU216TE923,2013-02-02 01:12:00,
2013-02-01 20:17:00,23.2,13.6,30.26,NW,315,0.0,0.0,66,0.00,,,0.00,WUHU216TE923,2013-02-02 01:17:00,
2013-02-01 20:22:00,23.5,13.9,30.26,WSW,248,0.0,0.0,66,0.00,,,0.00,WUHU216TE923,2013-02-02 01:22:00,
2013-02-01 20:27:00,23.2,13.6,30.26,SW,225,0.4,0.4,66,0.00,,,0.00,WUHU216TE923,2013-02-02 01:27:00,
2013-02-01 20:32:00,23.2,13.6,30.26,NNE,23,0.4,0.4,66,0.00,,,0.00,WUHU216TE923,2013-02-02 01:32:00,
2013-02-01 20:37:00,23.2,13.9,30.25,NNE,23,0.0,0.4,67,0.00,,,0.00,WUHU216TE923,2013-02-02 01:37:00,
2013-02-01 20:42:00,23.2,13.9,30.25,East,90,0.0,0.0,67,0.00,,,0.00,WUHU216TE923,2013-02-02 01:42:00,
2013-02-01 20:47:00,22.8,13.5,30.25,SSE,158,0.0,0.0,67,0.00,,,0.00,WUHU216TE923,2013-02-02 01:47:00,
2013-02-01 20:52:00,22.8,13.5,30.25,SSW,203,0.1,1.1,67,0.00,,,0.00,WUHU216TE923,2013-02-02 01:52:00,
2013-02-01 20:57:00,22.8,13.5,30.25,SSW,203,0.9,1.5,67,0.00,,,0.00,WUHU216TE923,2013-02-02 01:57:00,
2013-02-01 21:02:00,22.8,13.5,30.25,SW,225,1.4,1.5,67,0.00,,,0.00,WUHU216TE923,2013-02-02 02:02:00,
2013-02-01 21:07:00,22.8,13.5,30.25,SSW,203,1.4,1.4,67,0.00,,,0.00,WUHU216TE923,2013-02-02 02:07:00,
2013-02-01 21:12:00,23.2,13.2,30.25,SSW,203,1.1,1.4,65,0.00,,,0.00,WUHU216TE923,2013-02-02 02:12:00,
2013-02-01 21:17:00,23.2,13.6,30.24,East,90,0.4,1.1,66,0.00,,,0.00,WUHU216TE923,2013-02-02 02:17:00,
2013-02-01 21:22:00,22.8,13.5,30.24,ENE,68,0.1,1.1,67,0.00,,,0.00,WUHU216TE923,2013-02-02 02:22:00,
2013-02-01 21:27:00,22.8,13.2,30.24,ENE,68,0.1,1.1,66,0.00,,,0.00,WUHU216TE923,2013-02-02 02:27:00,
2013-02-01 21:32:00,22.6,12.7,30.24,ENE,68,0.5,1.5,65,0.00,,,0.00,WUHU216TE923,2013-02-02 02:32:00,
2013-02-01 21:37:00,22.8,12.8,30.23,WSW,248,0.7,1.7,65,0.00,,,0.00,WUHU216TE923,2013-02-02 02:37:00,
2013-02-01 21:42:00,22.6,13.0,30.23,SSW,203,0.8,2.0,66,0.00,,,0.00,WUHU216TE923,2013-02-02 02:42:00,
2013-02-01 21:47:00,22.8,13.2,30.23,WNW,293,1.0,2.0,66,0.00,,,0.00,WUHU216TE923,2013-02-02 02:47:00,
2013-02-01 21:52:00,23.2,13.2,30.23,SW,225,0.7,1.1,65,0.00,,,0.00,WUHU216TE923,2013-02-02 02:52:00,
2013-02-01 21:57:00,23.2,13.6,30.22,WSW,248,0.9,2.0,66,0.00,,,0.00,WUHU216TE923,2013-02-02 02:57:00,
2013-02-01 22:02:00,23.2,13.2,30.22,WSW,248,1.2,2.0,65,0.00,,,0.00,WUHU216TE923,2013-02-02 03:02:00,
2013-02-01 22:07:00,23.2,13.2,30.22,WSW,248,1.3,1.5,65,0.00,,,0.00,WUHU216TE923,2013-02-02 03:07:00,
2013-02-01 22:12:00,23.2,13.2,30.22,SW,225,1.0,1.5,65,0.00,,,0.00,WUHU216TE923,2013-02-02 03:12:00,
2013-02-01 22:17:00,23.4,13.4,30.23,SW,225,0.4,1.0,65,0.00,,,0.00,WUHU216TE923,2013-02-02 03:17:00,
2013-02-01 22:22:00,23.4,13.4,30.23,West,270,0.4,1.8,65,0.00,,,0.00,WUHU216TE923,2013-02-02 03:22:00,
2013-02-01 22:27:00,23.4,13.4,30.23,SW,225,1.4,3.2,65,0.00,,,0.00,WUHU216TE923,2013-02-02 03:27:00,
2013-02-01 22:32:00,23.2,13.2,30.23,NW,315,2.5,3.2,65,0.00,,,0.00,WUHU216TE923,2013-02-02 03:32:00,
2013-02-01 22:37:00,23.2,13.2,30.24,West,270,2.7,2.8,65,0.00,,,0.00,WUHU216TE923,2013-02-02 03:37:00,
2013-02-01 22:42:00,23.2,13.2,30.24,West,270,2.6,2.8,65,0.00,,,0.00,WUHU216TE923,2013-02-02 03:42:00,
2013-02-01 22:47:00,23.2,13.2,30.24,SW,225,2.6,2.8,65,0.00,,,0.00,WUHU216TE923,2013-02-02 03:47:00,
2013-02-01 22:52:00,23.2,13.2,30.24,SW,225,2.6,3.7,65,0.00,,,0.00,WUHU216TE923,2013-02-02 03:52:00,
2013-02-01 22:57:00,23.2,13.2,30.24,SW,225,2.6,3.7,65,0.00,,,0.00,WUHU216TE923,2013-02-02 03:57:00,
2013-02-01 23:02:00,23.2,13.2,30.24,SW,225,2.6,3.7,65,0.00,,,0.00,WUHU216TE923,2013-02-02 04:02:00,
2013-02-01 23:07:00,23.2,13.2,30.24,SW,225,2.5,3.3,65,0.00,,,0.00,WUHU216TE923,2013-02-02 04:07:00,
2013-02-01 23:12:00,23.2,13.2,30.24,South,180,2.4,3.3,65,0.00,,,0.00,WUHU216TE923,2013-02-02 04:12:00,
2013-02-01 23:17:00,23.2,13.2,30.23,SW,225,2.3,3.3,65,0.00,,,0.00,WUHU216TE923,2013-02-02 04:17:00,
2013-02-01 23:22:00,23.2,13.2,30.23,SW,225,2.3,2.6,65,0.00,,,0.00,WUHU216TE923,2013-02-02 04:22:00,
2013-02-01 23:27:00,23.2,13.2,30.23,SW,225,1.9,2.6,65,0.00,,,0.00,WUHU216TE923,2013-02-02 04:27:00,
2013-02-01 23:32:00,23.2,13.2,30.23,SW,225,1.9,1.9,65,0.00,,,0.00,WUHU216TE923,2013-02-02 04:32:00,
2013-02-01 23:37:00,23.2,13.2,30.21,South,180,1.9,2.1,65,0.00,,,0.00,WUHU216TE923,2013-02-02 04:37:00,
2013-02-01 23:42:00,23.2,13.2,30.21,West,270,2.0,2.7,65,0.00,,,0.00,WUHU216TE923,2013-02-02 04:42:00,
2013-02-01 23:47:00,23.2,13.6,30.21,WSW,248,1.9,2.7,66,0.00,,,0.00,WUHU216TE923,2013-02-02 04:47:00,
2013-02-01 23:52:00,23.4,13.4,30.21,WSW,248,1.8,2.7,65,0.00,,,0.00,WUHU216TE923,2013-02-02 04:52:00,
2013-02-01 23:57:00,23.4,13.4,30.21,SSW,203,1.8,2.7,65,0.00,,,0.00,WUHU216TE923,2013-02-02 04:57:00,